Regional Weather Roundup
Issued by NWS New Orleans/Baton Rouge, LA

Home | Current Version | Previous Version | Text Only | Print | Product List | Glossary On
Versions: 1 2 3 4 5 6 7 8 9 10 11 12 13 14 15 16 17 18 19 20 21 22 23 24 25 26 27 28
000
ASUS44 KLIX 201912
RWRLIX
NEW ORLEANS REGIONAL WEATHER ROUNDUP
NATIONAL WEATHER SERVICE NEW ORLEANS LA
100 PM CST MON NOV 20 2017

NOTE: "FAIR" INDICATES FEW OR NO CLOUDS BELOW 12,000 FEET WITH NO
      SIGNIFICANT WEATHER AND/OR OBSTRUCTIONS TO VISIBILITY.
      SKY/WX - SKY CONDITION AND SIGNIFICANT WEATHER.
      TMP - AIR TEMPERATURE.     DP    - DEWPOINT TEMPERATURE.
      RH  - RELATIVE HUMIDITY.   PRES  - PRESSURE.
      HI  - HEAT INDEX.          WCI   - WIND CHILL INDEX.

*  THESE STATIONS ARE NOT NWS OR FAA STATIONS AND ARE NOT UNDER
   NWS QUALITY CONTROL.

LAZ038-040-048-061>063-065>067-069-202000-
SOUTHEAST LOUISIANA

CITY           SKY/WX    TMP DP  RH WIND       PRES   REMARKS
N.O. INTL ARPT PTSUNNY   59  40  49 NW3       30.17F
N.O. LAKEFRONT PTSUNNY   59  40  49 N7        30.18F
N.O. DOWNTOWN*   N/A     60  35  39 CALM      30.18F
RESERVE*         N/A     62  36  37 CALM      30.17F
SLIDELL        MOSUNNY   56  35  45 CALM      30.18F
BATON ROUGE    MOSUNNY   57  33  40 VRB3      30.17F
BOOTHVILLE     CLOUDY    63  52  67 NE7       30.16F
BELLE CHASSE   PTSUNNY   62  44  51 CALM      30.16F
BOGALUSA*      NOT AVBL
GALLIANO*      CLOUDY    58  44  58 NE7       30.16F
NEW ROADS*       N/A     58  33  39 N3        30.18F
GONZALES*        N/A     59  37  43 CALM      30.16F
HAMMOND*       SUNNY     57  32  38 CALM      30.18F
HOUMA*         SUNNY     63  39  42 NE5       30.16F
PORT FOURCHON* NOT AVBL

$$

MSZ070-080>082-202000-
SOUTHERN MISSISSIPPI

CITY           SKY/WX    TMP DP  RH WIND       PRES   REMARKS
MCCOMB         MOSUNNY   54  29  38 NE5       30.17F
GULFPORT       MOSUNNY   54  39  57 CALM      30.18F
BILOXI         CLOUDY    57  40  52 S3        30.18F
PASCAGOULA     MOSUNNY   60  36  40 VRB6      30.18F

$$

COASTAL OBSERVATIONS
LAKE AND NEARSHORE STATIONS

STATION/POSITION TIME  TEMP    WIND        PRES    WAVE
                       AIR SEA DIR/SP/G            HT/PER
                 (UTC) (F)     (DEG/KT/KT) (MB)    (FT/S)
PASCAGOULA       1842   56      50/  2/  4 1021.7
WAVELAND YACHT   1842   53 60   70/  1/  2 1022.1
GRAND ISLE       1842   60 63   70/  6/ 10 1021.3
SOUTHWEST PASS   1842   65 63   40/ 10/ 15 1021.1
NEW CANAL        1842   56 63   20/  7/  8 1021.8
SHELL BEACH      1842   56 64   40/  5/  6 1021.9

OFFSHORE STATIONS

STATION/POSITION TIME  TEMP    WIND        PRES    WAVE
                       AIR SEA DIR/SP/G            HT/PER
                 (UTC) (F)     (DEG/KT/KT) (MB)    (FT/S)
64 S DAUPHIN ISL 1850   64 79   80/  6/ 10 1020.6    3/ 6

$$





USA.gov is the U.S. government's official web portal to all federal, state and local government web resources and services.